Location: Aranbee
(34.0885°N, 118.2342°W)
Time: 10:38:46
(UTC+00:00)

Courier 1B Rocket - Pass Details

Date: 28 November 2020
Orbit: 920 x 1202 km, 28.2° (Epoch: 19 January)

Event Time Altitude Azimuth Distance (km) Brightness Sun altitude
Exits shadow 11:57:03 17° 191° (S) 2,619 7.1 -32.9°
Maximum altitude 12:00:46 24° 154° (SSE) 2,245 7.1 -32.1°
Drops below altitude 10° 12:06:42 10° 104° (ESE) 3,111 8.5 -30.9°
Sets 12:10:07 0° 92° (E) 4,053 9.4 -30.2°
